EW6603 Weather Reports


time (UTC)temp
C
wind
direction
speed
KPH
gust
KPH
rain 1hr
cm
rain 24hr
cm
rain mn
cm
humidity
%
barometer
mb
20260503025611 11 303 0.0 0.0 0.00 0.00 0.00 52 1013.9
20260503025517 11 303 0.0 0.0 0.00 0.00 0.00 55 1013.9
20260503025427 11 303 0.0 0.0 0.00 0.00 0.00 50 1013.9
20260503025313 11 303 0.0 0.0 0.00 0.00 0.00 50 1013.9
20260503025226 11 303 0.0 0.0 0.00 0.00 0.00 53 1013.9
20260503025132 11 303 0.0 0.0 0.00 0.00 0.00 51 1013.9
20260503025017 11 303 0.0 0.0 0.00 0.00 0.00 52 1013.9
20260503024923 11 303 0.0 0.0 0.00 0.00 0.00 53 1013.9
20260503024813 11 303 0.0 0.0 0.00 0.00 0.00 53 1013.8
20260503024726 11 304 0.0 0.0 0.00 0.00 0.00 53 1013.8
20260503024612 11 304 0.0 0.0 0.00 0.00 0.00 53 1013.9
20260503024556 11 304 0.0 0.0 0.00 0.00 0.00 52 1013.9
20260503024540 11 304 0.0 0.0 0.00 0.00 0.00 54 1013.9
20260503024431 11 304 0.0 0.0 0.00 0.00 0.00 54 1013.9
20260503024317 11 304 0.0 0.0 0.00 0.00 0.00 51 1013.9
20260503024227 11 255 0.0 0.0 0.00 0.00 0.00 54 1013.9
20260503024113 11 255 0.0 0.0 0.00 0.00 0.00 52 1013.9
20260503024015 11 255 0.0 0.0 0.00 0.00 0.00 52 1013.9
20260503023922 11 255 0.0 0.0 0.00 0.00 0.00 53 1013.9
20260503023835 11 255 0.0 0.0 0.00 0.00 0.00 54 1013.9
20260503023741 11 255 0.0 0.0 0.00 0.00 0.00 53 1013.8
20260503023609 11 255 0.0 0.0 0.00 0.00 0.00 49 1013.9
20260503023515 11 255 0.0 0.0 0.00 0.00 0.00 49 1013.8
20260503023428 11 255 0.0 0.0 0.00 0.00 0.00 50 1013.8
20260503023315 11 255 0.0 0.0 0.00 0.00 0.00 51 1013.8
20260503023221 11 255 0.0 0.0 0.00 0.00 0.00 52 1013.9
20260503023111 11 255 0.0 0.0 0.00 0.00 0.00 49 1013.8
20260503023058 11 255 0.0 0.0 0.00 0.00 0.00 51 1013.8
20260503023018 11 255 0.0 0.0 0.00 0.00 0.00 51 1013.8
20260503022923 11 319 0.0 0.0 0.00 0.00 0.00 47 1013.8
20260503022809 11 261 0.0 9.7 0.00 0.00 0.00 53 1013.9
20260503022722 11 261 0.0 9.7 0.00 0.00 0.00 53 1013.9
20260503022612 11 261 0.0 9.7 0.00 0.00 0.00 56 1013.9
20260503022518 11 261 0.0 9.7 0.00 0.00 0.00 53 1013.8
20260503022424 11 261 0.0 9.7 0.00 0.00 0.00 53 1013.8
20260503022330 11 261 0.0 9.7 0.00 0.00 0.00 55 1013.8
20260503022222 11 261 0.0 9.7 0.00 0.00 0.00 54 1013.8
20260503022149 11 261 0.0 9.7 0.00 0.00 0.00 50 1013.8
20260503022015 11 259 0.0 9.7 0.00 0.00 0.00 53 1013.8
20260503021931 11 282 0.0 0.0 0.00 0.00 0.00 52 1013.8
20260503021817 11 281 0.0 0.0 0.00 0.00 0.00 51 1013.8
20260503021723 11 284 0.0 0.0 0.00 0.00 0.00 51 1013.8
20260503021609 11 296 0.0 0.0 0.00 0.00 0.00 55 1013.7
20260503021548 11 294 0.0 0.0 0.00 0.00 0.00 55 1013.7
20260503021515 11 286 0.0 0.0 0.00 0.00 0.00 56 1013.8
20260503021432 11 286 0.0 0.0 0.00 0.00 0.00 52 1013.8
20260503021335 11 286 0.0 0.0 0.00 0.00 0.00 50 1013.8
20260503021220 11 286 0.0 0.0 0.00 0.00 0.00 51 1013.7
20260503021126 11 286 0.0 0.0 0.00 0.00 0.00 50 1013.7
20260503021012 11 278 0.0 0.0 0.00 0.00 0.00 51 1013.7
20260503020925 11 290 0.0 0.0 0.00 0.00 0.00 49 1013.7
20260503020815 11 290 0.0 0.0 0.00 0.00 0.00 50 1013.8
20260503020721 11 290 0.0 0.0 0.00 0.00 0.00 50 1013.8
20260503020627 11 290 0.0 0.0 0.00 0.00 0.00 51 1013.8
20260503020513 11 290 0.0 0.0 0.00 0.00 0.00 50 1013.8
20260503020419 11 290 0.0 0.0 0.00 0.00 0.00 51 1013.7
20260503020332 11 290 0.0 0.0 0.00 0.00 0.00 49 1013.7
20260503020219 11 290 0.0 0.0 0.00 0.00 0.00 51 1013.8
20260503020122 11 290 0.0 0.0 0.00 0.00 0.00 51 1013.8
20260503020035 11 290 0.0 0.0 0.00 0.00 0.00 49 1013.7
20260503020020 11 290 0.0 0.0 0.00 0.00 0.00 49 1013.7
20260503015941 11 320 0.0 0.0 0.00 0.00 0.00 57 1013.7
20260503015826 11 9 0.0 0.0 0.00 0.00 0.00 51 1013.7
20260503015712 11 26 0.0 0.0 0.00 0.00 0.00 52 1013.7
20260503015649 11 26 0.0 0.0 0.00 0.00 0.00 49 1013.7
20260503015528 11 26 0.0 0.0 0.00 0.00 0.00 49 1013.8
20260503015414 11 26 0.0 0.0 0.00 0.00 0.00 51 1013.8
20260503015321 11 26 0.0 0.0 0.00 0.00 0.00 49 1013.8
20260503015234 11 26 0.0 0.0 0.00 0.00 0.00 48 1013.8
20260503015120 11 26 0.0 0.0 0.00 0.00 0.00 48 1013.8
20260503015010 11 21 0.0 0.0 0.00 0.00 0.00 53 1013.8
20260503014917 11 26 0.0 0.0 0.00 0.00 0.00 53 1013.9
20260503014822 11 26 0.0 0.0 0.00 0.00 0.00 57 1013.9
20260503014729 11 26 0.0 0.0 0.00 0.00 0.00 56 1013.9
20260503014615 11 26 0.0 0.0 0.00 0.00 0.00 54 1013.8
20260503014531 11 26 0.0 0.0 0.00 0.00 0.00 56 1013.8
20260503014509 11 281 0.0 0.0 0.00 0.00 0.00 56 1013.8
20260503014418 11 281 0.0 0.0 0.00 0.00 0.00 55 1013.8
20260503014323 11 281 0.0 0.0 0.00 0.00 0.00 53 1013.8
20260503014210 11 281 0.0 0.0 0.00 0.00 0.00 49 1013.8
20260503014143 11 61 0.0 0.0 0.00 0.00 0.00 55 1013.8
20260503014027 11 118 0.0 0.0 0.00 0.00 0.00 55 1013.8
20260503013917 11 236 0.0 0.0 0.00 0.00 0.00 60 1013.8
20260503013824 11 236 0.0 0.0 0.00 0.00 0.00 58 1013.8
20260503013727 11 236 0.0 0.0 0.00 0.00 0.00 57 1013.8
20260503013613 11 236 0.0 0.0 0.00 0.00 0.00 63 1013.8
20260503013527 11 236 0.0 0.0 0.00 0.00 0.00 63 1013.8
20260503013416 11 236 0.0 0.0 0.00 0.00 0.00 54 1013.7
20260503013323 11 236 0.0 0.0 0.00 0.00 0.00 55 1013.7
20260503013209 11 236 0.0 0.0 0.00 0.00 0.00 56 1013.7
20260503013142 11 236 0.0 0.0 0.00 0.00 0.00 57 1013.7
20260503013115 11 236 0.0 0.0 0.00 0.00 0.00 57 1013.7
20260503013028 11 236 0.0 0.0 0.00 0.00 0.00 59 1013.7
20260503012920 11 236 0.0 0.0 0.00 0.00 0.00 59 1013.7
20260503012826 11 236 0.0 0.0 0.00 0.00 0.00 57 1013.7
20260503012713 11 236 0.0 0.0 0.00 0.00 0.00 56 1013.7
20260503012618 11 236 0.0 0.0 0.00 0.00 0.00 56 1013.7
20260503012531 11 236 0.0 0.0 0.00 0.00 0.00 54 1013.7
20260503012416 11 236 0.0 0.0 0.00 0.00 0.00 54 1013.7
20260503012321 11 236 0.0 0.0 0.00 0.00 0.00 54 1013.6
20260503012217 12 236 0.0 0.0 0.00 0.00 0.00 55 1013.6
20260503012142 12 236 0.0 0.0 0.00 0.00 0.00 54 1013.6
20260503012034 12 236 0.0 0.0 0.00 0.00 0.00 54 1013.6
20260503011920 12 236 0.0 0.0 0.00 0.00 0.00 55 1013.6
20260503011817 12 236 0.0 0.0 0.00 0.00 0.00 58 1013.5
20260503011723 12 236 0.0 0.0 0.00 0.00 0.00 54 1013.5
20260503011612 12 236 0.0 0.0 0.00 0.00 0.00 57 1013.5
20260503011538 12 236 0.0 0.0 0.00 0.00 0.00 58 1013.5
20260503011518 12 236 0.0 0.0 0.00 0.00 0.00 58 1013.5
20260503011431 12 236 0.0 0.0 0.00 0.00 0.00 54 1013.5
20260503011343 12 236 0.0 0.0 0.00 0.00 0.00 50 1013.5
20260503011235 12 236 0.0 0.0 0.00 0.00 0.00 51 1013.5
20260503011120 12 236 0.0 0.0 0.00 0.00 0.00 51 1013.5
20260503011027 12 236 0.0 0.0 0.00 0.00 0.00 54 1013.5
20260503010917 12 236 0.0 0.0 0.00 0.00 0.00 52 1013.4
20260503010823 12 236 0.0 0.0 0.00 0.00 0.00 50 1013.4
20260503010709 12 236 0.0 0.0 0.00 0.00 0.00 52 1013.4
20260503010622 12 236 0.0 0.0 0.00 0.00 0.00 53 1013.4
20260503010548 12 236 0.0 0.0 0.00 0.00 0.00 54 1013.4
20260503010413 12 236 0.0 6.4 0.00 0.00 0.00 53 1013.4
20260503010329 12 236 0.0 6.4 0.00 0.00 0.00 51 1013.4
20260503010216 12 236 0.0 6.4 0.00 0.00 0.00 44 1013.4
20260503010122 12 237 0.0 6.4 0.00 0.00 0.00 45 1013.4
20260503010058 12 238 0.0 6.4 0.00 0.00 0.00 49 1013.3
20260503010027 12 244 0.0 6.4 0.00 0.00 0.00 49 1013.3
20260503005914 12 306 0.0 6.4 0.00 0.00 0.00 52 1013.3
20260503005847 12 311 0.0 6.4 0.00 0.00 0.00 49 1013.3
20260503005736 12 311 0.0 6.4 0.00 0.00 0.00 45 1013.3
20260503005621 12 260 0.0 6.4 0.00 0.00 0.00 44 1013.3
20260503005534 12 131 0.0 6.4 0.00 0.00 0.00 51 1013.3
20260503005420 12 26 0.0 0.0 0.00 0.00 0.00 56 1013.3
20260503005326 12 5 0.0 0.0 0.00 0.00 0.00 55 1013.3
20260503005215 12 5 0.0 0.0 0.00 0.00 0.00 55 1013.2
20260503005122 12 5 0.0 0.0 0.00 0.00 0.00 52 1013.2
20260503005035 12 5 0.0 0.0 0.00 0.00 0.00 51 1013.3
20260503004914 12 34 0.0 0.0 0.00 0.00 0.00 51 1013.2
20260503004826 12 37 0.0 0.0 0.00 0.00 0.00 52 1013.2
20260503004728 12 113 0.0 0.0 0.00 0.00 0.00 49 1013.1
20260503004618 12 113 0.0 0.0 0.00 0.00 0.00 53 1013.1
20260503004543 12 126 0.0 0.0 0.00 0.00 0.00 56 1013.1
20260503004525 12 171 0.0 0.0 0.00 0.00 0.00 56 1013.1
20260503004437 12 269 0.0 0.0 0.00 0.00 0.00 55 1013.1
20260503004335 12 269 0.0 0.0 0.00 0.00 0.00 52 1013.1
20260503004247 12 269 0.0 0.0 0.00 0.00 0.00 51 1013.1
20260503004112 12 269 0.0 0.0 0.00 0.00 0.00 50 1013.1
20260503004018 12 261 0.0 0.0 0.00 0.00 0.00 52 1013.0
20260503003928 12 260 0.0 0.0 0.00 0.00 0.00 49 1013.0
20260503003814 12 260 0.0 0.0 0.00 0.00 0.00 48 1013.0
20260503003727 12 246 0.0 0.0 0.00 0.00 0.00 51 1013.0
20260503003613 12 121 0.0 0.0 0.00 0.00 0.00 49 1012.9
20260503003519 12 119 0.0 0.0 0.00 0.00 0.00 52 1012.9
20260503003452 12 26 0.0 0.0 0.00 0.00 0.00 50 1012.9
20260503003317 12 304 0.0 0.0 0.00 0.00 0.00 53 1012.8
20260503003223 12 184 0.0 0.0 0.00 0.00 0.00 61 1012.8
20260503003128 12 286 0.0 0.0 0.00 0.00 0.00 62 1012.8
20260503003058 11 286 0.0 0.0 0.00 0.00 0.00 55 1012.8
20260503003014 12 282 0.0 0.0 0.00 0.00 0.00 61 1012.8
20260503002947 12 282 0.0 0.0 0.00 0.00 0.00 61 1012.8
20260503002815 12 282 0.0 0.0 0.00 0.00 0.00 59 1012.8
20260503002719 12 282 0.0 0.0 0.00 0.00 0.00 59 1012.7
20260503002652 12 282 0.0 0.0 0.00 0.00 0.00 60 1012.7
20260503002517 12 282 0.0 0.0 0.00 0.00 0.00 60 1012.7
20260503002423 12 282 0.0 0.0 0.00 0.00 0.00 60 1012.7
20260503002310 12 282 0.0 0.0 0.00 0.00 0.00 55 1012.6
20260503002220 12 282 0.0 0.0 0.00 0.00 0.00 54 1012.6
20260503002134 12 282 0.0 0.0 0.00 0.00 0.00 56 1012.6
20260503002013 12 282 0.0 0.0 0.00 0.00 0.00 55 1012.5
20260503001943 12 282 0.0 0.0 0.00 0.00 0.00 54 1012.5
20260503001809 12 282 0.0 0.0 0.00 0.00 0.00 51 1012.5
20260503001715 12 282 0.0 0.0 0.00 0.00 0.00 49 1012.5
20260503001632 12 282 0.0 0.0 0.00 0.00 0.00 51 1012.5
20260503001518 12 282 0.0 0.0 0.00 0.00 0.00 51 1012.5
20260503001506 12 282 0.0 0.0 0.00 0.00 0.00 51 1012.5
20260503001424 12 282 0.0 0.0 0.00 0.00 0.00 53 1012.5
20260503001310 12 282 0.0 0.0 0.00 0.00 0.00 51 1012.5
20260503001215 12 282 0.0 0.0 0.00 0.00 0.00 53 1012.5
20260503001118 12 282 0.0 0.0 0.00 0.00 0.00 53 1012.5
20260503001035 12 282 0.0 0.0 0.00 0.00 0.00 52 1012.5
20260503000921 12 282 0.0 0.0 0.00 0.00 0.00 51 1012.4
20260503000826 12 282 0.0 0.0 0.00 0.00 0.00 50 1012.4
20260503000710 12 282 0.0 0.0 0.00 0.00 0.00 52 1012.4
20260503000615 12 282 0.0 0.0 0.00 0.00 0.00 52 1012.4
20260503000529 12 282 0.0 0.0 0.00 0.00 0.00 52 1012.4
20260503000437 13 282 0.0 0.0 0.00 0.00 0.00 50 1012.4
20260503000321 13 292 0.0 0.0 0.00 0.00 0.00 52 1012.4
20260503000227 13 292 0.0 0.0 0.00 0.00 0.00 53 1012.4
20260503000112 13 292 0.0 0.0 0.00 0.00 0.00 51 1012.4
20260503000056 13 292 0.0 0.0 0.00 0.00 0.00 51 1012.4
20260503000018 13 292 0.0 0.0 0.00 0.00 0.00 55 1012.4
20260502235935 13 292 0.0 0.0 0.00 0.00 0.00 53 1012.4
20260502235821 13 292 0.0 0.0 0.00 0.00 0.00 55 1012.3
20260502235727 13 292 0.0 0.0 0.00 0.00 0.00 50 1012.3
20260502235613 13 292 0.0 0.0 0.00 0.00 0.00 49 1012.3
20260502235520 13 292 0.0 0.0 0.00 0.00 0.00 48 1012.3
20260502235429 13 292 0.0 0.0 0.00 0.00 0.00 50 1012.3
20260502235314 13 292 0.0 0.0 0.00 0.00 0.00 49 1012.3
20260502235226 13 292 0.0 0.0 0.00 0.00 0.00 47 1012.3
20260502235125 13 292 0.0 0.0 0.00 0.00 0.00 46 1012.3
20260502235011 13 292 0.0 0.0 0.00 0.00 0.00 43 1012.2
20260502234944 13 292 0.0 0.0 0.00 0.00 0.00 43 1012.2
20260502234813 13 292 0.0 0.0 0.00 0.00 0.00 42 1012.1
20260502234718 13 292 0.0 0.0 0.00 0.00 0.00 43 1012.1
20260502234624 13 5 0.0 0.0 0.00 0.00 0.00 42 1012.1
20260502234546 13 5 0.0 0.0 0.00 0.00 0.00 42 1012.0
20260502234510 13 5 0.0 0.0 0.00 0.00 0.00 42 1012.0
20260502234443 13 5 0.0 0.0 0.00 0.00 0.00 41 1012.0
20260502234328 13 5 0.0 0.0 0.00 0.00 0.00 41 1012.1
20260502234218 13 5 0.0 0.0 0.00 0.00 0.00 43 1012.0
20260502234151 13 5 0.0 0.0 0.00 0.00 0.00 44 1012.0
20260502234016 13 5 0.0 0.0 0.00 0.00 0.00 46 1012.0
20260502233922 13 5 0.0 0.0 0.00 0.00 0.00 45 1012.0
20260502233855 13 299 0.0 0.0 0.00 0.00 0.00 44 1011.9
20260502233710 13 299 0.0 0.0 0.00 0.00 0.00 44 1011.9
20260502233643 13 299 0.0 0.0 0.00 0.00 0.00 44 1011.9
20260502233532 13 297 0.0 0.0 0.00 0.00 0.00 43 1012.0
20260502233444 13 294 0.0 0.0 0.00 0.00 0.00 42 1012.0
20260502233309 13 294 0.0 0.0 0.00 0.00 0.00 42 1012.0
20260502233215 13 294 0.0 0.0 0.00 0.00 0.00 40 1012.0
20260502233128 13 294 0.0 0.0 0.00 0.00 0.00 40 1012.0
20260502233014 13 304 0.0 0.0 0.00 0.00 0.00 42 1011.9
20260502233004 13 304 0.0 0.0 0.00 0.00 0.00 42 1011.9
20260502232924 13 302 0.0 0.0 0.00 0.00 0.00 40 1011.9
20260502232810 13 304 0.0 0.0 0.00 0.00 0.00 40 1011.8
20260502232716 13 40 0.0 0.0 0.00 0.00 0.00 42 1011.9
20260502232622 14 264 0.0 0.0 0.00 0.00 0.00 41 1011.9
20260502232535 14 269 0.0 0.0 0.00 0.00 0.00 42 1011.9
20260502232424 14 269 0.0 1.6 0.00 0.00 0.00 42 1011.9
20260502232311 14 266 0.0 4.8 0.00 0.00 0.00 41 1011.8
20260502232217 14 296 0.0 6.4 0.00 0.00 0.00 40 1011.8
20260502232122 14 172 0.0 6.4 0.00 0.00 0.00 42 1011.8
20260502232036 14 268 0.0 6.4 0.00 0.00 0.00 39 1011.8
20260502231920 14 42 0.0 6.4 0.00 0.00 0.00 41 1011.8
20260502231839 14 306 0.0 6.4 0.00 0.00 0.00 40 1011.8
20260502231712 14 143 0.0 6.4 0.00 0.00 0.00 39 1011.8
20260502231624 14 117 0.0 6.4 0.00 0.00 0.00 40 1011.8
20260502231616 13 252 0.0 6.4 0.00 0.00 0.00 42 1011.8
20260502231510 14 279 0.0 6.4 0.00 0.00 0.00 40 1011.8
20260502231416 14 309 0.0 6.4 0.00 0.00 0.00 42 1011.8
20260502231322 14 300 0.0 0.0 0.00 0.00 0.00 42 1011.8
20260502231212 14 281 0.0 0.0 0.00 0.00 0.00 43 1011.7
20260502231125 14 280 0.0 0.0 0.00 0.00 0.00 41 1011.7
20260502231031 14 280 0.0 0.0 0.00 0.00 0.00 40 1011.8
20260502230917 14 280 0.0 0.0 0.00 0.00 0.00 42 1011.8
20260502230844 14 280 0.0 0.0 0.00 0.00 0.00 40 1011.8
20260502230709 14 327 0.0 0.0 0.00 0.00 0.00 43 1011.8
20260502230626 14 333 0.0 0.0 0.00 0.00 0.00 42 1011.8
20260502230513 14 298 0.0 0.0 0.00 0.00 0.00 42 1011.7
20260502230418 14 296 0.0 0.0 0.00 0.00 0.00 43 1011.7
20260502230324 14 294 0.0 0.0 0.00 0.00 0.00 40 1011.7
20260502230210 14 296 0.0 0.0 0.00 0.00 0.00 40 1011.7
20260502230127 14 297 0.0 0.0 0.00 0.00 0.00 40 1011.7
20260502230033 14 36 0.0 0.0 0.00 0.00 0.00 40 1011.7
20260502230010 14 302 0.0 1.6 0.00 0.00 0.00 40 1011.6
20260502225919 14 268 0.0 1.6 0.00 0.00 0.00 42 1011.6
20260502225833 14 264 0.0 1.6 0.00 0.00 0.00 41 1011.6
20260502225731 14 298 0.0 1.6 0.00 0.00 0.00 41 1011.7
20260502225623 14 266 0.0 1.6 0.00 0.00 0.00 43 1011.7
20260502225513 14 286 0.0 1.6 0.00 0.00 0.00 43 1011.7
20260502225419 14 263 0.0 1.6 0.00 0.00 0.00 44 1011.6
20260502225325 14 246 0.0 1.6 0.00 0.00 0.00 44 1011.6
20260502225231 14 266 0.0 1.6 0.00 0.00 0.00 42 1011.6
20260502225123 14 291 0.0 0.0 0.00 0.00 0.00 43 1011.6
20260502225009 14 292 0.0 3.2 0.00 0.00 0.00 41 1011.6
20260502224919 14 275 0.0 3.2 0.00 0.00 0.00 41 1011.6
20260502224852 15 298 0.0 3.2 0.00 0.00 0.00 41 1011.6
20260502224717 15 313 0.0 3.2 0.00 0.00 0.00 43 1011.6
20260502224619 15 313 0.0 3.2 0.00 0.00 0.00 42 1011.6
20260502224548 14 313 0.0 3.2 0.00 0.00 0.00 42 1011.5
20260502224525 15 313 0.0 3.2 0.00 0.00 0.00 42 1011.6
20260502224411 15 284 0.0 3.2 0.00 0.00 0.00 43 1011.5
20260502224328 15 278 0.0 3.2 0.00 0.00 0.00 41 1011.5
20260502224234 15 277 0.0 3.2 0.00 0.00 0.00 40 1011.5
20260502224140 15 270 0.0 3.2 0.00 0.00 0.00 39 1011.5
20260502224025 15 305 0.0 0.0 0.00 0.00 0.00 41 1011.5
20260502223911 15 286 0.0 0.0 0.00 0.00 0.00 42 1011.5
20260502223844 15 286 0.0 0.0 0.00 0.00 0.00 41 1011.5
20260502223713 15 288 0.0 0.0 0.00 0.00 0.00 39 1011.4
20260502223619 15 268 0.0 0.0 0.00 0.00 0.00 41 1011.4
20260502223532 15 296 0.0 0.0 0.00 0.00 0.00 40 1011.4
20260502223411 15 293 0.0 0.0 0.00 0.00 0.00 42 1011.3
20260502223324 15 307 0.0 0.0 0.00 0.00 0.00 42 1011.3
20260502223213 15 300 0.0 0.0 0.00 0.00 0.00 43 1011.4
20260502223120 15 307 0.0 0.0 0.00 0.00 0.00 43 1011.4
20260502223042 15 309 0.0 0.0 0.00 0.00 0.00 43 1011.3
20260502223026 15 11 0.0 0.0 0.00 0.00 0.00 43 1011.4
20260502222939 15 283 0.0 0.0 0.00 0.00 0.00 43 1011.4
20260502222823 15 283 0.0 0.0 0.00 0.00 0.00 43 1011.4
20260502222709 15 283 0.0 0.0 0.00 0.00 0.00 40 1011.4
20260502222620 15 283 0.0 0.0 0.00 0.00 0.00 42 1011.4
20260502222532 15 287 0.0 0.0 0.00 0.00 0.00 44 1011.4
20260502222411 15 286 0.0 0.0 0.00 0.00 0.00 42 1011.3
20260502222324 15 360 0.0 0.0 0.00 0.00 0.00 44 1011.3
20260502222210 15 21 0.0 0.0 0.00 0.00 0.00 42 1011.4
20260502222116 15 34 0.0 0.0 0.00 0.00 0.00 45 1011.4
20260502222026 15 294 0.0 0.0 0.00 0.00 0.00 41 1011.4
20260502221912 15 273 0.0 0.0 0.00 0.00 0.00 42 1011.3
20260502221825 15 240 0.0 0.0 0.00 0.00 0.00 43 1011.3
20260502221731 15 271 0.0 0.0 0.00 0.00 0.00 42 1011.3
20260502221637 15 238 0.0 0.0 0.00 0.00 0.00 41 1011.3
20260502221550 15 250 0.0 0.0 0.00 0.00 0.00 41 1011.3
20260502221508 15 278 0.0 0.0 0.00 0.00 0.00 43 1011.2
20260502221418 15 306 0.0 0.0 0.00 0.00 0.00 42 1011.3
20260502221324 15 303 0.0 0.0 0.00 0.00 0.00 43 1011.3
20260502221230 15 279 0.0 0.0 0.00 0.00 0.00 42 1011.3
20260502221122 15 301 0.0 0.0 0.00 0.00 0.00 41 1011.3
20260502221028 15 301 0.0 0.0 0.00 0.00 0.00 42 1011.3
20260502220914 15 295 0.0 0.0 0.00 0.00 0.00 42 1011.3
20260502220824 15 295 0.0 0.0 0.00 0.00 0.00 42 1011.3
20260502220710 15 295 0.0 0.0 0.00 0.00 0.00 40 1011.2
20260502220616 15 300 0.0 0.0 0.00 0.00 0.00 42 1011.3
20260502220529 15 300 0.0 0.0 0.00 0.00 0.00 43 1011.3
20260502220415 15 300 0.0 0.0 0.00 0.00 0.00 42 1011.2
20260502220326 15 300 0.0 0.0 0.00 0.00 0.00 40 1011.2
20260502220211 15 5 0.0 0.0 0.00 0.00 0.00 39 1011.3
20260502220144 15 12 0.0 0.0 0.00 0.00 0.00 38 1011.3
20260502220111 15 12 0.0 0.0 0.00 0.00 0.00 38 1011.2
20260502220009 15 349 0.0 0.0 0.00 0.00 0.00 39 1011.3
20260502215911 15 5 0.0 0.0 0.00 0.00 0.00 39 1011.3
20260502215817 15 360 0.0 0.0 0.00 0.00 0.00 40 1011.3
20260502215750 15 360 0.0 0.0 0.00 0.00 0.00 40 1011.3
20260502215619 15 300 0.0 0.0 0.00 0.00 0.00 43 1011.3
20260502215545 15 327 0.0 0.0 0.00 0.00 0.00 42 1011.3
20260502215411 15 327 0.0 0.0 0.00 0.00 0.00 42 1011.2
20260502215344 15 291 0.0 0.0 0.00 0.00 0.00 41 1011.2
20260502215209 15 314 0.0 0.0 0.00 0.00 0.00 40 1011.2
20260502215116 15 334 0.0 0.0 0.00 0.00 0.00 41 1011.2
20260502215033 15 265 0.0 0.0 0.00 0.00 0.00 41 1011.2
20260502214919 15 271 0.0 8.0 0.00 0.00 0.00 42 1011.2
20260502214825 15 271 0.0 8.0 0.00 0.00 0.00 41 1011.2
20260502214731 15 135 0.0 8.0 0.00 0.00 0.00 41 1011.2
20260502214616 15 233 0.0 8.0 0.00 0.00 0.00 42 1011.2
20260502214529 15 298 0.0 8.0 0.00 0.00 0.00 40 1011.2
20260502214511 15 320 0.0 8.0 0.00 0.00 0.00 40 1011.1
20260502214419 16 265 0.0 8.0 0.00 0.00 0.00 40 1011.2
20260502214325 16 310 0.0 8.0 0.00 0.00 0.00 41 1011.2
20260502214211 16 330 0.0 8.0 0.00 0.00 0.00 41 1011.2
20260502214144 16 355 0.0 8.0 0.00 0.00 0.00 41 1011.2
20260502214029 16 273 0.0 0.0 0.00 0.00 0.00 42 1011.1
20260502213918 16 207 0.0 0.0 0.00 0.00 0.00 41 1011.1
20260502213825 16 295 0.0 0.0 0.00 0.00 0.00 40 1011.1
20260502213711 16 305 0.0 0.0 0.00 0.00 0.00 39 1011.1
20260502213617 16 315 0.0 0.0 0.00 0.00 0.00 39 1011.0
20260502213529 16 18 0.0 0.0 0.00 0.00 0.00 41 1011.0
20260502213416 16 290 0.0 0.0 0.00 0.00 0.00 44 1011.0
20260502213346 16 215 0.0 0.0 0.00 0.00 0.00 40 1011.0
20260502213210 16 261 0.0 0.0 0.00 0.00 0.00 40 1011.0
20260502213124 16 264 0.0 0.0 0.00 0.00 0.00 39 1011.0
20260502213029 16 264 0.0 0.0 0.00 0.00 0.00 40 1011.0
20260502213005 15 269 0.0 0.0 0.00 0.00 0.00 40 1010.9
20260502212916 16 311 0.0 0.0 0.00 0.00 0.00 41 1011.0
20260502212822 16 296 0.0 0.0 0.00 0.00 0.00 40 1011.0
20260502212713 16 295 0.0 0.0 0.00 0.00 0.00 40 1011.0
20260502212618 16 296 0.0 0.0 0.00 0.00 0.00 39 1011.0
20260502212532 16 276 0.0 0.0 0.00 0.00 0.00 39 1011.0
20260502212418 16 266 0.0 0.0 0.00 0.00 0.00 39 1011.0
20260502212324 16 275 0.0 0.0 0.00 0.00 0.00 40 1011.0
20260502212213 16 318 0.0 0.0 0.00 0.00 0.00 40 1011.0
20260502212120 16 257 0.0 0.0 0.00 0.00 0.00 40 1011.0
20260502212025 16 266 0.0 0.0 0.00 0.00 0.00 39 1011.0
20260502211911 16 44 0.0 0.0 0.00 0.00 0.00 39 1010.9
20260502211824 16 69 0.0 0.0 0.00 0.00 0.00 39 1010.9
20260502211714 16 71 0.0 0.0 0.00 0.00 0.00 38 1010.9
20260502211621 16 250 0.0 0.0 0.00 0.00 0.00 38 1011.0
20260502211555 15 286 0.0 0.0 0.00 0.00 0.00 38 1010.9
20260502211526 16 17 0.0 0.0 0.00 0.00 0.00 39 1011.0
20260502211412 16 276 0.0 0.0 0.00 0.00 0.00 38 1011.0
20260502211314 16 19 0.0 0.0 0.00 0.00 0.00 42 1011.0
20260502211227 16 233 0.0 0.0 0.00 0.00 0.00 40 1011.0
20260502211117 16 281 0.0 0.0 0.00 0.00 0.00 39 1011.0
20260502211017 16 31 0.0 0.0 0.00 0.00 0.00 40 1011.0
20260502210922 16 350 0.0 0.0 0.00 0.00 0.00 39 1011.0
20260502210835 16 36 0.0 0.0 0.00 0.00 0.00 37 1011.0
20260502210721 16 26 0.0 0.0 0.00 0.00 0.00 38 1010.9
20260502210611 16 296 0.0 0.0 0.00 0.00 0.00 43 1010.9
20260502210537 16 247 0.0 0.0 0.00 0.00 0.00 43 1010.9
20260502210422 16 285 0.0 0.0 0.00 0.00 0.00 43 1010.9
20260502210336 16 295 0.0 0.0 0.00 0.00 0.00 44 1010.9
20260502210221 16 286 0.0 0.0 0.00 0.00 0.00 43 1011.0
20260502210127 16 261 0.0 0.0 0.00 0.00 0.00 42 1010.9
20260502210054 15 292 0.0 0.0 0.00 0.00 0.00 45 1010.9
20260502210017 16 298 0.0 0.0 0.00 0.00 0.00 45 1010.9
20260502205923 16 298 0.0 0.0 0.00 0.00 0.00 42 1010.9
20260502205809 16 271 0.0 0.0 0.00 0.00 0.00 41 1010.9
20260502205715 16 291 0.0 0.0 0.00 0.00 0.00 41 1010.9
20260502205628 16 290 0.0 0.0 0.00 0.00 0.00 40 1010.9
20260502205514 16 276 0.0 0.0 0.00 0.00 0.00 40 1010.9
20260502205424 16 292 0.0 0.0 0.00 0.00 0.00 41 1010.9
20260502205310 16 288 0.0 0.0 0.00 0.00 0.00 41 1011.0
20260502205243 16 274 0.0 6.4 0.00 0.00 0.00 40 1011.0
20260502205128 16 240 0.0 6.4 0.00 0.00 0.00 40 1011.0
20260502205014 16 270 0.0 6.4 0.00 0.00 0.00 39 1011.0
20260502204921 16 315 0.0 6.4 0.00 0.00 0.00 40 1010.9
20260502204811 16 188 0.0 6.4 0.00 0.00 0.00 40 1010.9
20260502204744 16 313 0.0 6.4 0.00 0.00 0.00 40 1010.9
20260502204609 16 69 0.0 6.4 0.00 0.00 0.00 42 1011.0
20260502204549 16 94 0.0 6.4 0.00 0.00 0.00 42 1010.8
20260502204515 16 313 0.0 6.4 0.00 0.00 0.00 40 1011.0
20260502204421 16 340 0.0 6.4 0.00 0.00 0.00 41 1010.9
20260502204311 16 346 0.0 3.2 0.00 0.00 0.00 43 1010.9
20260502204224 16 266 0.0 0.0 0.00 0.00 0.00 42 1010.9
20260502204109 16 5 0.0 0.0 0.00 0.00 0.00 41 1011.0
20260502204015 16 300 0.0 0.0 0.00 0.00 0.00 41 1011.0
20260502203921 16 315 0.0 0.0 0.00 0.00 0.00 39 1011.0
20260502203854 16 177 0.0 0.0 0.00 0.00 0.00 41 1011.0
20260502203723 16 179 0.0 0.0 0.00 0.00 0.00 39 1011.0
20260502203610 16 32 0.0 0.0 0.00 0.00 0.00 41 1011.0
20260502203516 16 317 0.0 1.6 0.00 0.00 0.00 40 1011.0
20260502203422 16 331 0.0 1.6 0.00 0.00 0.00 42 1011.0
20260502203335 16 34 0.0 1.6 0.00 0.00 0.00 42 1011.0
20260502203241 16 11 0.0 1.6 0.00 0.00 0.00 42 1011.0
20260502203110 16 43 0.0 1.6 0.00 0.00 0.00 41 1011.0
20260502203043 15 38 0.0 1.6 0.00 0.00 0.00 41 1010.9
20260502203016 16 312 0.0 1.6 0.00 0.00 0.00 41 1011.1
20260502202922 16 355 0.0 1.6 0.00 0.00 0.00 43 1011.1
20260502202835 16 37 0.0 1.6 0.00 0.00 0.00 41 1011.1
20260502202741 16 37 0.0 1.6 0.00 0.00 0.00 40 1011.1
20260502202626 16 32 0.0 1.6 0.00 0.00 0.00 40 1011.1
20260502202516 16 32 0.0 0.0 0.00 0.00 0.00 40 1011.2
20260502202429 16 103 0.0 0.0 0.00 0.00 0.00 40 1011.2
20260502202316 15 100 0.0 0.0 0.00 0.00 0.00 42 1011.2
20260502202221 15 38 0.0 0.0 0.00 0.00 0.00 41 1011.2
20260502202147 15 325 0.0 0.0 0.00 0.00 0.00 39 1011.2
20260502202012 15 344 0.0 0.0 0.00 0.00 0.00 40 1011.2
20260502201929 15 57 0.0 0.0 0.00 0.00 0.00 41 1011.2
20260502201815 15 49 0.0 0.0 0.00 0.00 0.00 41 1011.2
20260502201741 15 49 0.0 1.6 0.00 0.00 0.00 42 1011.2
20260502201633 15 49 0.0 1.6 0.00 0.00 0.00 41 1011.2
20260502201519 15 61 0.0 1.6 0.00 0.00 0.00 41 1011.2
20260502201508 15 60 0.0 1.6 0.00 0.00 0.00 41 1011.1
20260502201409 15 32 0.0 1.6 0.00 0.00 0.00 41 1011.2
20260502201315 15 31 0.0 1.6 0.00 0.00 0.00 41 1011.2
20260502201221 16 45 0.0 1.6 0.00 0.00 0.00 40 1011.2
20260502201127 15 211 0.0 1.6 0.00 0.00 0.00 41 1011.3
20260502201040 16 125 0.0 1.6 0.00 0.00 0.00 40 1011.2
20260502200925 16 160 0.0 1.6 0.00 0.00 0.00 41 1011.2
20260502200817 16 180 0.0 0.0 0.00 0.00 0.00 41 1011.2
20260502200722 16 184 0.0 0.0 0.00 0.00 0.00 43 1011.2
20260502200635 16 69 0.0 0.0 0.00 0.00 0.00 41 1011.2
20260502200520 16 84 0.0 0.0 0.00 0.00 0.00 43 1011.2
20260502200426 16 286 0.0 0.0 0.00 0.00 0.00 42 1011.2
20260502200312 16 323 0.0 0.0 0.00 0.00 0.00 41 1011.2
20260502200230 16 304 0.0 0.0 0.00 0.00 0.00 42 1011.2
20260502200135 16 298 0.0 0.0 0.00 0.00 0.00 41 1011.2
20260502200109 15 299 0.0 0.0 0.00 0.00 0.00 44 1011.1
20260502200018 16 315 0.0 0.0 0.00 0.00 0.00 42 1011.2
20260502195945 16 12 0.0 0.0 0.00 0.00 0.00 43 1011.2
20260502195837 16 5 0.0 0.0 0.00 0.00 0.00 41 1011.2
20260502195715 16 336 0.0 0.0 0.00 0.00 0.00 42 1011.2
20260502195626 16 285 0.0 0.0 0.00 0.00 0.00 42 1011.2
20260502195512 16 285 0.0 0.0 0.00 0.00 0.00 42 1011.3
20260502195417 16 284 0.0 1.6 0.00 0.00 0.00 40 1011.3
20260502195323 16 284 0.0 1.6 0.00 0.00 0.00 40 1011.3
20260502195209 16 205 0.0 1.6 0.00 0.00 0.00 41 1011.3
20260502195122 16 205 0.0 1.6 0.00 0.00 0.00 41 1011.3
20260502195012 16 228 0.0 1.6 0.00 0.00 0.00 42 1011.3
20260502194919 16 229 0.0 1.6 0.00 0.00 0.00 40 1011.3
20260502194824 16 288 0.0 1.6 0.00 0.00 0.00 39 1011.3
20260502194711 16 42 0.0 1.6 0.00 0.00 0.00 41 1011.4
20260502194616 16 77 0.0 1.6 0.00 0.00 0.00 40 1011.4
20260502194533 16 53 0.0 0.0 0.00 0.00 0.00 39 1011.4
20260502194507 16 97 0.0 0.0 0.00 0.00 0.00 39 1011.3
20260502194420 16 101 0.0 0.0 0.00 0.00 0.00 39 1011.4
20260502194325 16 207 0.0 0.0 0.00 0.00 0.00 39 1011.4
20260502194211 16 108 0.0 0.0 0.00 0.00 0.00 41 1011.3
20260502194117 16 21 0.0 0.0 0.00 0.00 0.00 42 1011.4
20260502194030 16 335 0.0 0.0 0.00 0.00 0.00 41 1011.4
20260502193920 16 322 0.0 0.0 0.00 0.00 0.00 42 1011.4
20260502193826 16 13 0.0 0.0 0.00 0.00 0.00 42 1011.4
20260502193713 16 103 0.0 0.0 0.00 0.00 0.00 43 1011.4
20260502193619 16 103 0.0 0.0 0.00 0.00 0.00 40 1011.3
20260502193525 16 327 0.0 0.0 0.00 0.00 0.00 40 1011.3
20260502193414 16 323 0.0 0.0 0.00 0.00 0.00 40 1011.4
20260502193327 16 311 0.0 0.0 0.00 0.00 0.00 40 1011.4
20260502193250 16 309 0.0 0.0 0.00 0.00 0.00 38 1011.4
20260502193112 16 318 0.0 8.0 0.00 0.00 0.00 41 1011.5
20260502193025 16 295 0.0 8.0 0.00 0.00 0.00 39 1011.5
20260502193016 15 283 0.0 8.0 0.00 0.00 0.00 39 1011.4
20260502192931 16 302 0.0 8.0 0.00 0.00 0.00 39 1011.5
20260502192821 16 315 0.0 8.0 0.00 0.00 0.00 39 1011.6
20260502192727 16 314 0.0 8.0 0.00 0.00 0.00 38 1011.6
20260502192613 16 298 0.0 8.0 0.00 0.00 0.00 38 1011.6
20260502192519 16 300 0.0 8.0 0.00 0.00 0.00 39 1011.6
20260502192432 16 304 1.6 8.0 0.00 0.00 0.00 39 1011.6
20260502192321 16 256 1.6 8.0 0.00 0.00 0.00 38 1011.5
20260502192244 16 282 0.0 1.6 0.00 0.00 0.00 39 1011.5
20260502192109 16 312 0.0 1.6 0.00 0.00 0.00 40 1011.6
20260502192042 16 256 0.0 1.6 0.00 0.00 0.00 40 1011.6
20260502191927 16 117 0.0 4.8 0.00 0.00 0.00 41 1011.6
20260502191832 16 253 0.0 4.8 0.00 0.00 0.00 41 1011.5
20260502191724 16 233 0.0 4.8 0.00 0.00 0.00 40 1011.5
20260502191614 16 334 0.0 16.1 0.00 0.00 0.00 40 1011.6
20260502191601 16 307 0.0 16.1 0.00 0.00 0.00 44 1011.5
20260502191520 16 342 0.0 16.1 0.00 0.00 0.00 39 1011.6
20260502191453 16 284 0.0 16.1 0.00 0.00 0.00 39 1011.6
20260502191318 16 298 0.0 16.1 0.00 0.00 0.00 40 1011.6
20260502191224 16 330 0.0 16.1 0.00 0.00 0.00 41 1011.6
20260502191110 16 306 0.0 16.1 0.00 0.00 0.00 39 1011.6
20260502191019 16 338 0.0 16.1 0.00 0.00 0.00 39 1011.7
20260502190926 16 307 1.6 16.1 0.00 0.00 0.00 38 1011.7
20260502190838 16 268 3.2 16.1 0.00 0.00 0.00 38 1011.7
20260502190741 16 259 0.0 9.7 0.00 0.00 0.00 40 1011.8
20260502190715 16 247 0.0 0.0 0.00 0.00 0.00 39 1011.7
20260502190518 16 290 0.0 0.0 0.00 0.00 0.00 37 1011.8
20260502190428 16 290 0.0 0.0 0.00 0.00 0.00 36 1011.8
20260502190334 16 297 0.0 0.0 0.00 0.00 0.00 37 1011.8
20260502190213 16 287 0.0 0.0 0.00 0.00 0.00 39 1011.9
20260502190126 16 45 0.0 0.0 0.00 0.00 0.00 37 1011.9
20260502190032 16 44 0.0 0.0 0.00 0.00 0.00 39 1011.9
20260502190008 16 15 0.0 0.0 0.00 0.00 0.00 39 1011.8
20260502185938 16 307 0.0 0.0 0.00 0.00 0.00 38 1011.9
20260502185850 16 51 0.0 0.0 0.00 0.00 0.00 38 1011.9
20260502185739 16 53 0.0 0.0 0.00 0.00 0.00 39 1012.0
20260502185624 16 49 0.0 0.0 0.00 0.00 0.00 40 1012.0
20260502185510 16 13 0.0 0.0 0.00 0.00 0.00 37 1012.0
20260502185443 16 240 0.0 0.0 0.00 0.00 0.00 38 1012.0
20260502185355 16 360 0.0 1.6 0.00 0.00 0.00 39 1012.0
20260502185240 16 308 0.0 1.6 0.00 0.00 0.00 38 1012.1
20260502185152 16 308 0.0 1.6 0.00 0.00 0.00 38 1012.1
20260502185021 16 280 0.0 1.6 0.00 0.00 0.00 38 1012.1
20260502184947 16 277 0.0 1.6 0.00 0.00 0.00 38 1012.1
20260502184812 16 276 0.0 1.6 0.00 0.00 0.00 38 1012.1
20260502184718 16 329 0.0 1.6 0.00 0.00 0.00 37 1012.1
20260502184631 16 315 0.0 1.6 0.00 0.00 0.00 39 1012.1
20260502184610 16 5 0.0 1.6 0.00 0.00 0.00 39 1012.0
20260502184517 16 115 0.0 1.6 0.00 0.00 0.00 37 1012.2
20260502184427 16 360 0.0 1.6 0.00 0.00 0.00 37 1012.2
20260502184313 16 290 0.0 1.6 0.00 0.00 0.00 38 1012.2
20260502184219 16 271 0.0 1.6 0.00 0.00 0.00 39 1012.2
20260502184132 16 330 0.0 1.6 0.00 0.00 0.00 39 1012.2
20260502184017 16 306 0.0 1.6 0.00 0.00 0.00 42 1012.2
20260502183923 16 78 0.0 1.6 0.00 0.00 0.00 41 1012.2
20260502183813 16 219 0.0 1.6 0.00 0.00 0.00 41 1012.2
20260502183719 16 180 0.0 0.0 0.00 0.00 0.00 41 1012.3
20260502183632 16 208 0.0 0.0 0.00 0.00 0.00 41 1012.3
20260502183518 16 321 0.0 0.0 0.00 0.00 0.00 42 1012.3
20260502183444 16 315 0.0 0.0 0.00 0.00 0.00 40 1012.3
20260502183313 15 288 0.0 0.0 0.00 0.00 0.00 41 1012.4
20260502183226 15 264 0.0 0.0 0.00 0.00 0.00 40 1012.4
20260502183112 15 195 0.0 0.0 0.00 0.00 0.00 40 1012.4
20260502183106 15 195 0.0 0.0 0.00 0.00 0.00 40 1012.3
20260502183038 15 191 0.0 0.0 0.00 0.00 0.00 40 1012.5
20260502182923 16 191 0.0 0.0 0.00 0.00 0.00 43 1012.5
20260502182808 16 292 0.0 0.0 0.00 0.00 0.00 40 1012.6
20260502182726 15 292 0.0 0.0 0.00 0.00 0.00 40 1012.6
20260502182612 15 46 0.0 0.0 0.00 0.00 0.00 42 1012.6
20260502182518 15 279 0.0 0.0 0.00 0.00 0.00 41 1012.5
20260502182424 15 275 0.0 0.0 0.00 0.00 0.00 40 1012.5
20260502182309 15 330 0.0 0.0 0.00 0.00 0.00 41 1012.6
20260502182215 16 301 0.0 0.0 0.00 0.00 0.00 44 1012.6
20260502182114 15 22 0.0 0.0 0.00 0.00 0.00 43 1012.6
20260502182019 16 315 0.0 1.6 0.00 0.00 0.00 40 1012.6
20260502181925 16 301 0.0 1.6 0.00 0.00 0.00 41 1012.6
20260502181810 16 16 0.0 3.2 0.00 0.00 0.00 40 1012.6
20260502181716 16 295 0.0 3.2 0.00 0.00 0.00 40 1012.6
20260502181633 16 5 0.0 3.2 0.00 0.00 0.00 40 1012.6
20260502181520 16 355 0.0 3.2 0.00 0.00 0.00 40 1012.6
20260502181507 15 355 0.0 3.2 0.00 0.00 0.00 40 1012.5
20260502181425 16 84 0.0 3.2 0.00 0.00 0.00 39 1012.6
20260502181312 16 121 0.0 3.2 0.00 0.00 0.00 39 1012.6
20260502181217 16 34 0.0 3.2 0.00 0.00 0.00 41 1012.6
20260502181123 16 65 0.0 3.2 0.00 0.00 0.00 41 1012.6
20260502181013 16 72 0.0 3.2 0.00 0.00 0.00 43 1012.7
20260502180926 16 327 0.0 1.6 0.00 0.00 0.00 43 1012.7
20260502180812 15 186 0.0 1.6 0.00 0.00 0.00 41 1012.7
20260502180718 15 217 0.0 1.6 0.00 0.00 0.00 41 1012.8
20260502180624 15 202 0.0 1.6 0.00 0.00 0.00 40 1012.8
20260502180514 15 196 0.0 1.6 0.00 0.00 0.00 40 1012.7
20260502180420 15 213 0.0 0.0 0.00 0.00 0.00 42 1012.8
20260502180333 15 297 0.0 0.0 0.00 0.00 0.00 45 1012.8
20260502180220 15 194 0.0 0.0 0.00 0.00 0.00 41 1012.8
20260502180126 15 215 0.0 0.0 0.00 0.00 0.00 42 1012.8
20260502170517 14 257 0.0 0.0 0.00 0.00 0.00 43 1013.6
20260502170422 14 294 0.0 0.0 0.00 0.00 0.00 44 1013.6
20260502170328 14 325 0.0 0.0 0.00 0.00 0.00 47 1013.7
20260502170218 14 28 0.0 0.0 0.00 0.00 0.00 43 1013.7
20260502170124 14 28 0.0 0.0 0.00 0.00 0.00 43 1013.7
20260502164331 14 148 0.0 0.0 0.00 0.00 0.00 43 1013.9
20260502164234 14 240 0.0 0.0 0.00 0.00 0.00 45 1013.9
20260502164112 14 246 0.0 0.0 0.00 0.00 0.00 43 1014.0
20260502164022 14 251 0.0 0.0 0.00 0.00 0.00 43 1014.0
20260502163935 14 256 0.0 0.0 0.00 0.00 0.00 43 1014.0
20260502163820 14 36 0.0 0.0 0.00 0.00 0.00 44 1014.0
20260502163726 14 66 0.0 0.0 0.00 0.00 0.00 45 1014.0
20260502163612 14 35 0.0 0.0 0.00 0.00 0.00 45 1014.0
20260502163519 14 91 0.0 0.0 0.00 0.00 0.00 41 1014.0
20260502163435 14 306 0.0 0.0 0.00 0.00 0.00 42 1014.0
20260502163341 14 157 0.0 0.0 0.00 0.00 0.00 42 1014.0
20260502163226 14 22 0.0 0.0 0.00 0.00 0.00 42 1014.0
20260502163140 14 61 0.0 1.6 0.00 0.00 0.00 43 1014.1
20260502163112 14 61 0.0 1.6 0.00 0.00 0.00 47 1014.0
20260502163024 14 97 0.0 1.6 0.00 0.00 0.00 47 1014.1
20260502162910 14 66 0.0 1.6 0.00 0.00 0.00 46 1014.0
20260502162843 14 30 0.0 1.6 0.00 0.00 0.00 46 1014.0
20260502162712 14 290 0.0 1.6 0.00 0.00 0.00 45 1014.1
20260502162618 14 360 0.0 1.6 0.00 0.00 0.00 46 1014.1
20260502162544 14 50 0.0 1.6 0.00 0.00 0.00 45 1014.1
20260502162409 14 342 0.0 1.6 0.00 0.00 0.00 45 1014.1
20260502162322 14 280 0.0 1.6 0.00 0.00 0.00 45 1014.1
20260502162212 14 360 0.0 0.0 0.00 0.00 0.00 46 1014.0
20260502162118 14 108 0.0 0.0 0.00 0.00 0.00 45 1014.1
20260502162051 14 101 0.0 0.0 0.00 0.00 0.00 44 1014.1
20260502161932 14 90 0.0 0.0 0.00 0.00 0.00 45 1014.2
20260502161817 14 332 0.0 0.0 0.00 0.00 0.00 49 1014.2
20260502161730 13 286 0.0 0.0 0.00 0.00 0.00 47 1014.2
20260502161635 13 9 0.0 0.0 0.00 0.00 0.00 45 1014.2
20260502161525 13 355 0.0 0.0 0.00 0.00 0.00 45 1014.1
20260502161500 13 242 0.0 0.0 0.00 0.00 0.00 45 1014.0
20260502161411 13 242 0.0 0.0 0.00 0.00 0.00 44 1014.1
20260502161317 13 258 0.0 0.0 0.00 0.00 0.00 44 1014.2
20260502161223 13 319 0.0 0.0 0.00 0.00 0.00 46 1014.2
20260502161109 13 290 0.0 0.0 0.00 0.00 0.00 45 1014.3
20260502161026 14 360 0.0 0.0 0.00 0.00 0.00 46 1014.3
20260502160911 14 259 0.0 0.0 0.00 0.00 0.00 45 1014.3
20260502160838 14 291 0.0 0.0 0.00 0.00 0.00 44 1014.3
20260502160750 14 272 0.0 0.0 0.00 0.00 0.00 45 1014.3
20260502160615 14 280 0.0 0.0 0.00 0.00 0.00 48 1014.4
20260502160521 14 273 0.0 8.0 0.00 0.00 0.00 49 1014.4
20260502160411 14 307 0.0 8.0 0.00 0.00 0.00 48 1014.4
20260502160317 13 32 0.0 8.0 0.00 0.00 0.00 47 1014.4
20260502160229 13 74 0.0 8.0 0.00 0.00 0.00 45 1014.4
20260502160136 13 235 0.0 8.0 0.00 0.00 0.00 45 1014.4
20260502152317 15 292 0.0 6.4 0.00 0.00 0.00 45 1014.2
20260502152222 15 303 0.0 6.4 0.00 0.00 0.00 48 1014.2
20260502152155 15 328 1.6 6.4 0.00 0.00 0.00 48 1014.3
20260502152020 15 277 0.0 6.4 0.00 0.00 0.00 43 1014.3
20260502151926 15 43 0.0 4.8 0.00 0.00 0.00 44 1014.2
20260502151812 15 292 0.0 4.8 0.00 0.00 0.00 43 1014.2
20260502151722 15 271 0.0 4.8 0.00 0.00 0.00 45 1014.2
20260502151635 15 246 0.0 4.8 0.00 0.00 0.00 47 1014.3
20260502151521 15 350 0.0 8.0 0.00 0.00 0.00 45 1014.3
20260502151512 14 34 0.0 8.0 0.00 0.00 0.00 45 1014.2
20260502151427 15 333 0.0 8.0 0.00 0.00 0.00 45 1014.3
20260502151313 14 281 0.0 8.0 0.00 0.00 0.00 49 1014.3
20260502151221 14 304 0.0 8.0 0.00 0.00 0.00 45 1014.3
20260502151153 14 308 0.0 8.0 0.00 0.00 0.00 44 1014.3
20260502151019 14 286 0.0 8.0 0.00 0.00 0.00 44 1014.3
20260502150924 14 281 0.0 8.0 0.00 0.00 0.00 45 1014.3
20260502150830 14 319 1.6 8.0 0.00 0.00 0.00 44 1014.3
20260502150722 14 296 1.6 8.0 0.00 0.00 0.00 42 1014.3
20260502150648 14 292 0.0 8.0 0.00 0.00 0.00 44 1014.3
20260502150517 14 40 0.0 8.0 0.00 0.00 0.00 44 1014.3
20260502150430 14 327 0.0 8.0 0.00 0.00 0.00 45 1014.3
20260502150309 14 35 0.0 8.0 0.00 0.00 0.00 44 1014.3
20260502150222 14 307 0.0 8.0 0.00 0.00 0.00 44 1014.3
20260502150128 14 300 0.0 12.9 0.00 0.00 0.00 42 1014.4
20260502150107 13 322 0.0 12.9 0.00 0.00 0.00 42 1014.3
20260502140110 12 286 0.0 0.0 0.00 0.00 0.00 47 1014.5
20260502130723 11 300 0.0 0.0 0.00 0.00 0.00 57 1014.2
20260502130609 11 296 0.0 0.0 0.00 0.00 0.00 58 1014.2
20260502130515 11 64 0.0 0.0 0.00 0.00 0.00 55 1014.2
20260502130428 11 321 0.0 0.0 0.00 0.00 0.00 54 1014.2
20260502130318 11 301 0.0 0.0 0.00 0.00 0.00 55 1014.2
20260502130224 11 5 0.0 0.0 0.00 0.00 0.00 56 1014.2
20260502130110 11 355 0.0 0.0 0.00 0.00 0.00 55 1014.2
20260502123734 11 350 0.0 11.3 0.00 0.00 0.00 59 1014.2
20260502123620 11 34 0.0 11.3 0.00 0.00 0.00 59 1014.2
20260502123552 11 31 0.0 11.3 0.00 0.00 0.00 58 1014.2
20260502123417 11 255 0.0 11.3 0.00 0.00 0.00 57 1014.2
20260502123348 11 42 0.0 11.3 0.00 0.00 0.00 58 1014.2
20260502123231 11 248 1.6 11.3 0.00 0.00 0.00 58 1014.2
20260502123137 11 50 1.6 11.3 0.00 0.00 0.00 56 1014.1
20260502123049 11 270 0.0 6.4 0.00 0.00 0.00 59 1014.1
20260502123017 10 280 0.0 6.4 0.00 0.00 0.00 55 1014.0
20260502122913 11 19 0.0 6.4 0.00 0.00 0.00 56 1014.1
20260502122819 10 5 0.0 6.4 0.00 0.00 0.00 55 1014.1
20260502122709 10 355 0.0 12.9 0.00 0.00 0.00 57 1014.1
20260502122615 10 42 0.0 12.9 0.00 0.00 0.00 57 1014.1
20260502122548 10 302 0.0 12.9 0.00 0.00 0.00 58 1014.1
20260502122413 10 334 0.0 12.9 0.00 0.00 0.00 57 1014.1
20260502122319 10 346 0.0 12.9 0.00 0.00 0.00 58 1014.1
20260502122252 10 260 0.0 12.9 0.00 0.00 0.00 58 1014.1
20260502122117 10 19 1.6 12.9 0.00 0.00 0.00 59 1014.1
20260502122027 10 5 1.6 12.9 0.00 0.00 0.00 57 1014.1
20260502121910 10 323 1.6 12.9 0.00 0.00 0.00 57 1014.0
20260502121816 11 53 0.0 6.4 0.00 0.00 0.00 56 1013.9
20260502121722 10 120 0.0 9.7 0.00 0.00 0.00 58 1013.9
20260502121635 10 72 0.0 9.7 0.00 0.00 0.00 57 1014.0
20260502121525 10 310 0.0 9.7 0.00 0.00 0.00 56 1013.9
20260502121505 10 309 0.0 9.7 0.00 0.00 0.00 56 1013.6
20260502121411 10 5 0.0 9.7 0.00 0.00 0.00 56 1013.8
20260502121317 10 47 1.6 9.7 0.00 0.00 0.00 58 1013.8
20260502121222 10 304 1.6 12.9 0.00 0.00 0.00 58 1013.8
20260502121135 10 317 1.6 12.9 0.00 0.00 0.00 58 1013.8
20260502121041 10 265 1.6 12.9 0.00 0.00 0.00 59 1013.8
20260502120910 10 46 0.0 12.9 0.00 0.00 0.00 56 1013.9
20260502120816 10 333 0.0 12.9 0.00 0.00 0.00 58 1013.9
20260502120722 10 336 0.0 12.9 0.00 0.00 0.00 57 1013.9
20260502120635 10 17 0.0 12.9 0.00 0.00 0.00 57 1013.9
20260502120521 10 5 1.6 12.9 0.00 0.00 0.00 57 1014.0
20260502120411 10 360 1.6 12.9 0.00 0.00 0.00 57 1013.9
20260502120316 10 37 0.0 0.0 0.00 0.00 0.00 58 1014.0
20260502120222 10 338 0.0 0.0 0.00 0.00 0.00 58 1014.0
20260502120135 10 263 0.0 0.0 0.00 0.00 0.00 58 1013.9
20260502115815 10 5 0.0 0.0 0.00 0.00 0.00 58 1014.0
20260502115749 10 20 0.0 0.0 0.00 0.00 0.00 57 1014.0
20260502115633 10 309 0.0 0.0 0.00 0.00 0.00 58 1014.1
20260502115545 10 25 0.0 0.0 0.00 0.00 0.00 58 1014.1
20260502115411 10 360 0.0 0.0 0.00 0.00 0.00 59 1014.1
20260502115316 10 35 0.0 0.0 0.00 0.00 0.00 59 1014.0
20260502115249 10 31 0.0 0.0 0.00 0.00 0.00 59 1014.0
20260502115134 10 44 0.0 0.0 0.00 0.00 0.00 58 1014.1
20260502115023 10 119 0.0 0.0 0.00 0.00 0.00 59 1014.1
20260502114909 10 314 0.0 0.0 0.00 0.00 0.00 59 1014.1
20260502114815 10 235 0.0 0.0 0.00 0.00 0.00 59 1014.0
20260502114728 10 321 0.0 0.0 0.00 0.00 0.00 60 1014.0
20260502114613 10 232 0.0 0.0 0.00 0.00 0.00 59 1013.9
20260502114537 10 31 0.0 0.0 0.00 0.00 0.00 59 1013.7
20260502114519 10 239 0.0 0.0 0.00 0.00 0.00 59 1013.9
20260502114409 10 298 0.0 0.0 0.00 0.00 0.00 59 1013.8
20260502114342 10 350 0.0 0.0 0.00 0.00 0.00 59 1013.8
20260502114227 10 295 0.0 0.0 0.00 0.00 0.00 61 1013.8
20260502114113 10 310 0.0 0.0 0.00 0.00 0.00 61 1013.9
20260502114019 10 323 0.0 0.0 0.00 0.00 0.00 61 1013.9
20260502113909 10 17 0.0 0.0 0.00 0.00 0.00 61 1014.0
20260502113842 10 296 0.0 0.0 0.00 0.00 0.00 60 1014.0
20260502113727 10 334 0.0 0.0 0.00 0.00 0.00 62 1014.0
20260502113613 10 283 0.0 0.0 0.00 0.00 0.00 60 1014.0
20260502113526 10 294 0.0 0.0 0.00 0.00 0.00 62 1014.0
20260502113432 10 285 0.0 0.0 0.00 0.00 0.00 63 1013.9
20260502113317 10 285 0.0 0.0 0.00 0.00 0.00 61 1013.9
20260502113234 10 296 0.0 0.0 0.00 0.00 0.00 60 1013.9
20260502113120 10 314 0.0 0.0 0.00 0.00 0.00 62 1013.8
20260502113026 10 250 0.0 0.0 0.00 0.00 0.00 62 1013.8
20260502113001 10 233 0.0 0.0 0.00 0.00 0.00 62 1013.7
20260502112912 10 292 0.0 0.0 0.00 0.00 0.00 64 1013.8
20260502112818 10 312 0.0 0.0 0.00 0.00 0.00 62 1013.8
20260502112728 10 319 0.0 0.0 0.00 0.00 0.00 64 1013.8
20260502112614 10 298 0.0 0.0 0.00 0.00 0.00 61 1013.8
20260502112527 10 298 0.0 0.0 0.00 0.00 0.00 61 1013.8
20260502112413 10 298 0.0 0.0 0.00 0.00 0.00 61 1013.7
20260502112320 10 298 0.0 0.0 0.00 0.00 0.00 61 1013.7
20260502112210 10 305 0.0 0.0 0.00 0.00 0.00 63 1013.7
20260502112144 10 309 0.0 0.0 0.00 0.00 0.00 61 1013.7
20260502112028 10 313 0.0 0.0 0.00 0.00 0.00 60 1013.8
20260502111914 10 313 0.0 0.0 0.00 0.00 0.00 60 1013.8
20260502111841 10 313 0.0 0.0 0.00 0.00 0.00 60 1013.8
20260502111733 10 78 0.0 0.0 0.00 0.00 0.00 61 1013.8
20260502111619 10 287 0.0 0.0 0.00 0.00 0.00 60 1013.7
20260502111606 10 338 0.0 0.0 0.00 0.00 0.00 60 1013.6
20260502111528 10 261 0.0 0.0 0.00 0.00 0.00 60 1013.7
20260502111415 10 306 0.0 0.0 0.00 0.00 0.00 61 1013.7
20260502111321 10 324 0.0 0.0 0.00 0.00 0.00 61 1013.7
20260502111227 10 313 0.0 0.0 0.00 0.00 0.00 61 1013.6
20260502111112 10 313 0.0 0.0 0.00 0.00 0.00 61 1013.6
20260502111045 10 313 0.0 0.0 0.00 0.00 0.00 61 1013.6
20260502110914 10 313 0.0 0.0 0.00 0.00 0.00 60 1013.5
20260502110821 10 284 0.0 0.0 0.00 0.00 0.00 59 1013.5
20260502110734 10 38 0.0 0.0 0.00 0.00 0.00 60 1013.5
20260502110641 10 337 0.0 0.0 0.00 0.00 0.00 59 1013.6
20260502110525 10 310 0.0 0.0 0.00 0.00 0.00 60 1013.6
20260502110415 10 350 0.0 0.0 0.00 0.00 0.00 58 1013.5
20260502110348 10 252 0.0 0.0 0.00 0.00 0.00 58 1013.5
20260502110213 10 306 0.0 0.0 0.00 0.00 0.00 57 1013.5
20260502110151 10 304 0.0 0.0 0.00 0.00 0.00 57 1013.4
20260502110140 10 308 0.0 0.0 0.00 0.00 0.00 59 1013.5
20260502110032 10 263 0.0 0.0 0.00 0.00 0.00 60 1013.6
20260502105916 10 300 0.0 0.0 0.00 0.00 0.00 58 1013.6
20260502105815 10 277 0.0 0.0 0.00 0.00 0.00 57 1013.7
20260502105732 10 229 0.0 0.0 0.00 0.00 0.00 58 1013.7
20260502105617 10 18 0.0 0.0 0.00 0.00 0.00 58 1013.7
20260502105523 10 318 0.0 0.0 0.00 0.00 0.00 58 1013.7
20260502105409 10 309 0.0 0.0 0.00 0.00 0.00 59 1013.6
20260502105315 10 331 0.0 0.0 0.00 0.00 0.00 58 1013.6
20260502105228 10 284 0.0 0.0 0.00 0.00 0.00 58 1013.6
20260502105118 10 306 0.0 0.0 0.00 0.00 0.00 59 1013.6
20260502105024 10 300 0.0 0.0 0.00 0.00 0.00 59 1013.6
20260502104910 10 238 0.0 0.0 0.00 0.00 0.00 59 1013.7
20260502104817 10 300 0.0 0.0 0.00 0.00 0.00 58 1013.8
20260502104729 10 277 0.0 0.0 0.00 0.00 0.00 58 1013.8
20260502104635 10 84 0.0 0.0 0.00 0.00 0.00 59 1013.8
20260502104547 10 275 0.0 0.0 0.00 0.00 0.00 59 1013.6
20260502104524 10 252 0.0 0.0 0.00 0.00 0.00 59 1013.8
20260502104410 10 265 0.0 0.0 0.00 0.00 0.00 58 1013.8
20260502104316 10 49 0.0 0.0 0.00 0.00 0.00 58 1013.7
20260502104229 10 294 0.0 0.0 0.00 0.00 0.00 60 1013.7
20260502104115 10 338 0.0 0.0 0.00 0.00 0.00 60 1013.7
20260502104025 10 338 0.0 0.0 0.00 0.00 0.00 59 1013.7
20260502103931 10 279 0.0 0.0 0.00 0.00 0.00 59 1013.6
20260502103823 10 24 0.0 0.0 0.00 0.00 0.00 58 1013.6
20260502103730 10 30 0.0 0.0 0.00 0.00 0.00 59 1013.7
20260502103615 10 329 0.0 0.0 0.00 0.00 0.00 60 1013.7
20260502103521 10 210 0.0 0.0 0.00 0.00 0.00 60 1013.7
20260502103411 10 292 0.0 0.0 0.00 0.00 0.00 59 1013.7
20260502103317 10 288 0.0 0.0 0.00 0.00 0.00 61 1013.7
20260502103230 10 254 0.0 0.0 0.00 0.00 0.00 61 1013.7
20260502103116 10 319 0.0 0.0 0.00 0.00 0.00 62 1013.6
20260502103104 10 319 0.0 0.0 0.00 0.00 0.00 62 1013.5
20260502103021 10 319 0.0 0.0 0.00 0.00 0.00 63 1013.6
20260502102955 10 319 0.0 0.0 0.00 0.00 0.00 62 1013.6
20260502102824 10 319 0.0 0.0 0.00 0.00 0.00 63 1013.6
20260502102729 10 297 0.0 0.0 0.00 0.00 0.00 62 1013.6
20260502102615 10 259 0.0 0.0 0.00 0.00 0.00 62 1013.5
20260502102521 10 309 0.0 0.0 0.00 0.00 0.00 63 1013.5
20260502102433 10 296 0.0 0.0 0.00 0.00 0.00 62 1013.5
20260502102320 10 321 0.0 0.0 0.00 0.00 0.00 62 1013.5
20260502102209 10 238 0.0 0.0 0.00 0.00 0.00 63 1013.5
20260502102116 10 296 0.0 0.0 0.00 0.00 0.00 62 1013.5
20260502102049 10 282 0.0 0.0 0.00 0.00 0.00 63 1013.5
20260502101913 10 247 0.0 0.0 0.00 0.00 0.00 62 1013.3
20260502101819 10 236 0.0 0.0 0.00 0.00 0.00 63 1013.4
20260502101745 10 319 0.0 0.0 0.00 0.00 0.00 63 1013.4
20260502101626 10 277 0.0 0.0 0.00 0.00 0.00 63 1013.2
20260502101614 10 277 0.0 0.0 0.00 0.00 0.00 63 1013.3
20260502101547 10 315 0.0 0.0 0.00 0.00 0.00 63 1013.3
20260502101412 10 331 0.0 0.0 0.00 0.00 0.00 63 1013.3
20260502101318 10 288 0.0 0.0 0.00 0.00 0.00 64 1013.3
20260502101231 10 290 0.0 0.0 0.00 0.00 0.00 63 1013.3
20260502101117 10 301 0.0 0.0 0.00 0.00 0.00 64 1013.3
20260502101027 10 40 0.0 0.0 0.00 0.00 0.00 63 1013.3
20260502100933 10 286 0.0 0.0 0.00 0.00 0.00 63 1013.3
20260502100825 10 298 0.0 0.0 0.00 0.00 0.00 63 1013.3
20260502100731 10 355 0.0 0.0 0.00 0.00 0.00 64 1013.3
20260502100616 10 298 0.0 0.0 0.00 0.00 0.00 65 1013.4
20260502100549 10 300 0.0 0.0 0.00 0.00 0.00 64 1013.4
20260502100417 10 360 0.0 0.0 0.00 0.00 0.00 64 1013.4
20260502100322 10 360 0.0 0.0 0.00 0.00 0.00 66 1013.4
20260502100228 10 296 0.0 0.0 0.00 0.00 0.00 65 1013.4
20260502100114 10 300 0.0 0.0 0.00 0.00 0.00 64 1013.3
20260502091527 10 241 0.0 0.0 0.00 0.00 0.00 76 1013.1
20260502091413 10 217 0.0 0.0 0.00 0.00 0.00 74 1013.1
20260502091319 10 128 0.0 0.0 0.00 0.00 0.00 75 1013.1
20260502091225 10 128 0.0 0.0 0.00 0.00 0.00 76 1013.1
20260502091115 10 198 0.0 0.0 0.00 0.00 0.00 77 1013.1
20260502091028 10 198 0.0 0.0 0.00 0.00 0.00 77 1013.1
20260502090934 10 198 0.0 0.0 0.00 0.00 0.00 76 1013.0
20260502090846 10 198 0.0 0.0 0.00 0.00 0.00 75 1013.0
20260502090711 10 198 0.0 0.0 0.00 0.00 0.00 74 1012.9
20260502090617 10 198 0.0 0.0 0.00 0.00 0.00 77 1013.0
20260502090550 10 198 0.0 0.0 0.00 0.00 0.00 75 1013.0
20260502090439 10 198 0.0 0.0 0.00 0.00 0.00 76 1013.0
20260502090324 10 144 0.0 0.0 0.00 0.00 0.00 77 1013.0
20260502090237 10 210 0.0 0.0 0.00 0.00 0.00 77 1012.9
20260502090122 10 210 0.0 0.0 0.00 0.00 0.00 78 1012.9
20260502071533 10 175 0.0 0.0 0.00 0.00 0.00 79 1012.3
20260502071521 10 175 0.0 0.0 0.00 0.00 0.00 79 1012.2
20260502071423 10 175 0.0 0.0 0.00 0.00 0.00 78 1012.3
20260502071310 10 175 0.0 0.0 0.00 0.00 0.00 79 1012.4
20260502071216 10 175 0.0 0.0 0.00 0.00 0.00 79 1012.4
20260502071121 10 175 0.0 0.0 0.00 0.00 0.00 79 1012.4
20260502071027 10 175 0.0 0.0 0.00 0.00 0.00 80 1012.3
20260502070917 11 175 0.0 0.0 0.00 0.00 0.00 78 1012.3
20260502070830 11 175 0.0 0.0 0.00 0.00 0.00 74 1012.3
20260502070716 11 175 0.0 0.0 0.00 0.00 0.00 71 1012.3
20260502070642 11 175 0.0 0.0 0.00 0.00 0.00 72 1012.3
20260502070534 11 175 0.0 0.0 0.00 0.00 0.00 73 1012.3
20260502070413 11 175 0.0 0.0 0.00 0.00 0.00 73 1012.4
20260502070330 11 175 0.0 0.0 0.00 0.00 0.00 75 1012.4
20260502070216 11 175 0.0 0.0 0.00 0.00 0.00 73 1012.4
20260502070122 11 175 0.0 0.0 0.00 0.00 0.00 73 1012.4
20260502070043 11 175 0.0 0.0 0.00 0.00 0.00 73 1012.3
20260502070027 11 175 0.0 0.0 0.00 0.00 0.00 73 1012.4
20260502065913 11 175 0.0 0.0 0.00 0.00 0.00 74 1012.4
20260502065846 11 175 0.0 0.0 0.00 0.00 0.00 73 1012.4
20260502065715 11 175 0.0 0.0 0.00 0.00 0.00 71 1012.4
20260502065648 11 175 0.0 0.0 0.00 0.00 0.00 72 1012.4
20260502065513 11 175 0.0 0.0 0.00 0.00 0.00 71 1012.4
20260502065419 11 175 0.0 0.0 0.00 0.00 0.00 72 1012.4
20260502065325 11 175 0.0 0.0 0.00 0.00 0.00 73 1012.3
20260502065231 11 175 0.0 0.0 0.00 0.00 0.00 73 1012.3
20260502065127 11 175 0.0 0.0 0.00 0.00 0.00 73 1012.3
20260502065013 11 175 0.0 0.0 0.00 0.00 0.00 74 1012.3
20260502064919 11 175 0.0 0.0 0.00 0.00 0.00 74 1012.3
20260502064825 11 175 0.0 0.0 0.00 0.00 0.00 71 1012.3
20260502064711 11 175 0.0 0.0 0.00 0.00 0.00 72 1012.4
20260502064644 11 175 0.0 0.0 0.00 0.00 0.00 71 1012.4
20260502064559 11 175 0.0 0.0 0.00 0.00 0.00 71 1012.3
20260502064513 11 175 0.0 0.0 0.00 0.00 0.00 73 1012.4
20260502064419 11 175 0.0 0.0 0.00 0.00 0.00 76 1012.3
20260502064352 11 175 0.0 0.0 0.00 0.00 0.00 76 1012.3
20260502064217 11 175 0.0 0.0 0.00 0.00 0.00 72 1012.3
20260502064123 11 175 0.0 0.0 0.00 0.00 0.00 69 1012.3
20260502064028 11 175 0.0 0.0 0.00 0.00 0.00 71 1012.3
20260502063919 11 175 0.0 0.0 0.00 0.00 0.00 75 1012.3
20260502063832 11 175 0.0 0.0 0.00 0.00 0.00 74 1012.3
20260502063738 11 175 0.0 0.0 0.00 0.00 0.00 76 1012.3
20260502063623 11 175 0.0 0.0 0.00 0.00 0.00 76 1012.3
20260502063529 11 175 0.0 0.0 0.00 0.00 0.00 77 1012.2
20260502063415 11 175 0.0 0.0 0.00 0.00 0.00 76 1012.2
20260502063332 11 175 0.0 0.0 0.00 0.00 0.00 77 1012.2
20260502063217 11 186 0.0 0.0 0.00 0.00 0.00 78 1012.3
20260502063124 11 251 0.0 0.0 0.00 0.00 0.00 76 1012.3
20260502063109 11 251 0.0 0.0 0.00 0.00 0.00 76 1012.2
20260502063009 11 251 0.0 0.0 0.00 0.00 0.00 77 1012.3
20260502062916 11 267 0.0 0.0 0.00 0.00 0.00 77 1012.2
20260502062833 11 267 0.0 0.0 0.00 0.00 0.00 77 1012.2
20260502062720 11 267 0.0 0.0 0.00 0.00 0.00 78 1012.2
20260502062626 11 267 0.0 0.0 0.00 0.00 0.00 80 1012.3
20260502062511 11 192 0.0 0.0 0.00 0.00 0.00 81 1012.3
20260502062417 11 236 0.0 0.0 0.00 0.00 0.00 82 1012.2
20260502062351 11 227 0.0 0.0 0.00 0.00 0.00 81 1012.2
20260502062219 11 227 0.0 0.0 0.00 0.00 0.00 82 1012.2
20260502062125 11 227 0.0 0.0 0.00 0.00 0.00 81 1012.3
20260502062011 11 227 0.0 0.0 0.00 0.00 0.00 80 1012.2
20260502061918 11 267 0.0 0.0 0.00 0.00 0.00 80 1012.2
20260502061823 11 195 0.0 0.0 0.00 0.00 0.00 80 1012.2
20260502061713 11 221 0.0 0.0 0.00 0.00 0.00 78 1012.3
20260502061627 11 257 0.0 0.0 0.00 0.00 0.00 83 1012.3
20260502061605 11 279 0.0 0.0 0.00 0.00 0.00 83 1012.2
20260502061512 11 279 0.0 0.0 0.00 0.00 0.00 82 1012.3
20260502061418 11 279 0.0 0.0 0.00 0.00 0.00 81 1012.3
20260502061324 11 279 0.0 0.0 0.00 0.00 0.00 79 1012.2
20260502061250 11 219 0.0 0.0 0.00 0.00 0.00 80 1012.2
20260502061132 11 219 0.0 0.0 0.00 0.00 0.00 81 1012.3
20260502061048 11 219 0.0 0.0 0.00 0.00 0.00 81 1012.3
20260502060913 11 219 0.0 0.0 0.00 0.00 0.00 81 1012.3
20260502060819 11 219 0.0 0.0 0.00 0.00 0.00 81 1012.3
20260502060752 11 219 0.0 0.0 0.00 0.00 0.00 81 1012.3
20260502060617 11 219 0.0 0.0 0.00 0.00 0.00 80 1012.4
20260502060523 11 191 0.0 0.0 0.00 0.00 0.00 78 1012.4
20260502060413 11 191 0.0 0.0 0.00 0.00 0.00 77 1012.3
20260502060319 11 191 0.0 0.0 0.00 0.00 0.00 77 1012.3
20260502060232 11 191 0.0 0.0 0.00 0.00 0.00 77 1012.3
20260502060119 11 191 0.0 0.0 0.00 0.00 0.00 76 1012.3
20260502060110 11 191 0.0 0.0 0.00 0.00 0.00 76 1012.2
20260502060025 11 191 0.0 0.0 0.00 0.00 0.00 76 1012.3
20260502055915 11 191 0.0 0.0 0.00 0.00 0.00 77 1012.3
20260502055849 12 191 0.0 0.0 0.00 0.00 0.00 78 1012.3
20260502055733 12 191 0.0 0.0 0.00 0.00 0.00 79 1012.4
20260502055619 12 191 0.0 0.0 0.00 0.00 0.00 78 1012.3
20260502055525 12 191 0.0 0.0 0.00 0.00 0.00 79 1012.3
20260502055431 12 191 0.0 0.0 0.00 0.00 0.00 77 1012.3
20260502055323 12 191 0.0 0.0 0.00 0.00 0.00 77 1012.3
20260502055213 12 191 0.0 0.0 0.00 0.00 0.00 79 1012.4
20260502055119 12 191 0.0 0.0 0.00 0.00 0.00 79 1012.4
20260502055025 12 191 0.0 0.0 0.00 0.00 0.00 77 1012.4
20260502054911 12 191 0.0 0.0 0.00 0.00 0.00 75 1012.5
20260502054817 12 191 0.0 0.0 0.00 0.00 0.00 76 1012.5
20260502054733 12 191 0.0 0.0 0.00 0.00 0.00 75 1012.5
20260502054620 12 191 0.0 0.0 0.00 0.00 0.00 75 1012.6
20260502054609 12 191 0.0 0.0 0.00 0.00 0.00 75 1012.6
20260502054525 12 175 0.0 0.0 0.00 0.00 0.00 75 1012.7
20260502054411 12 155 0.0 0.0 0.00 0.00 0.00 76 1012.6
20260502054318 12 155 0.0 0.0 0.00 0.00 0.00 75 1012.7
20260502054223 12 155 0.0 0.0 0.00 0.00 0.00 73 1012.7
20260502054122 12 155 0.0 0.0 0.00 0.00 0.00 74 1012.7
20260502054026 12 155 0.0 0.0 0.00 0.00 0.00 74 1012.7
20260502053912 12 183 0.0 0.0 0.00 0.00 0.00 74 1012.7
20260502053839 12 214 0.0 0.0 0.00 0.00 0.00 75 1012.7
20260502053731 12 214 0.0 0.0 0.00 0.00 0.00 76 1012.7
20260502053615 12 214 0.0 0.0 0.00 0.00 0.00 76 1012.7
20260502053525 12 214 0.0 0.0 0.00 0.00 0.00 77 1012.7
20260502053411 12 214 0.0 0.0 0.00 0.00 0.00 79 1012.7
20260502053324 12 214 0.0 0.0 0.00 0.00 0.00 79 1012.7
20260502053231 12 214 0.0 0.0 0.00 0.00 0.00 78 1012.7
20260502053116 12 214 0.0 0.0 0.00 0.00 0.00 79 1012.6
20260502053047 11 214 0.0 0.0 0.00 0.00 0.00 79 1012.6
20260502053022 12 214 0.0 0.0 0.00 0.00 0.00 79 1012.6
20260502052912 12 214 0.0 0.0 0.00 0.00 0.00 78 1012.6
20260502052825 12 214 0.0 0.0 0.00 0.00 0.00 78 1012.6
20260502052711 12 214 0.0 0.0 0.00 0.00 0.00 78 1012.6
20260502052637 12 214 0.0 0.0 0.00 0.00 0.00 77 1012.6
20260502052529 12 214 0.0 0.0 0.00 0.00 0.00 79 1012.6
20260502052419 12 313 0.0 0.0 0.00 0.00 0.00 80 1012.6
20260502052325 12 313 0.0 0.0 0.00 0.00 0.00 80 1012.6
20260502052211 12 313 0.0 0.0 0.00 0.00 0.00 80 1012.6
20260502052138 12 313 0.0 0.0 0.00 0.00 0.00 82 1012.6
20260502052030 12 313 0.0 0.0 0.00 0.00 0.00 82 1012.6
20260502051916 12 313 0.0 0.0 0.00 0.00 0.00 81 1012.6
20260502051826 12 313 0.0 0.0 0.00 0.00 0.00 80 1012.6
20260502051732 12 313 0.0 0.0 0.00 0.00 0.00 79 1012.6
20260502051624 12 299 0.0 0.0 0.00 0.00 0.00 79 1012.6
20260502051614 12 228 0.0 0.0 0.00 0.00 0.00 82 1012.5
20260502051530 12 150 0.0 0.0 0.00 0.00 0.00 82 1012.6
20260502051415 12 123 0.0 0.0 0.00 0.00 0.00 82 1012.6
20260502051321 12 107 0.0 0.0 0.00 0.00 0.00 83 1012.6
20260502051211 12 107 0.0 0.0 0.00 0.00 0.00 82 1012.6
20260502051144 12 107 0.0 0.0 0.00 0.00 0.00 82 1012.6
20260502051009 12 110 0.0 0.0 0.00 0.00 0.00 79 1012.6
20260502050915 12 110 0.0 0.0 0.00 0.00 0.00 78 1012.6
20260502050828 12 110 0.0 0.0 0.00 0.00 0.00 78 1012.6
20260502050714 11 102 0.0 0.0 0.00 0.00 0.00 77 1012.7
20260502050624 11 96 0.0 0.0 0.00 0.00 0.00 76 1012.7
20260502050510 11 128 0.0 0.0 0.00 0.00 0.00 80 1012.7
20260502050416 11 143 0.0 0.0 0.00 0.00 0.00 82 1012.6
20260502050349 11 146 0.0 0.0 0.00 0.00 0.00 83 1012.6
20260502050214 11 177 0.0 0.0 0.00 0.00 0.00 84 1012.7
20260502050120 11 178 0.0 0.0 0.00 0.00 0.00 85 1012.7
20260502050044 10 177 0.0 0.0 0.00 0.00 0.00 85 1012.6
20260502050025 11 177 0.0 0.0 0.00 0.00 0.00 85 1012.6
20260502045911 11 177 0.0 0.0 0.00 0.00 0.00 85 1012.6
20260502045824 11 177 0.0 0.0 0.00 0.00 0.00 86 1012.6
20260502045710 11 181 0.0 0.0 0.00 0.00 0.00 87 1012.6
20260502045616 11 313 0.0 0.0 0.00 0.00 0.00 87 1012.6
20260502045522 11 313 0.0 0.0 0.00 0.00 0.00 88 1012.6
20260502045432 11 313 0.0 0.0 0.00 0.00 0.00 88 1012.6
20260502045323 11 313 0.0 0.0 0.00 0.00 0.00 88 1012.6
20260502045210 11 313 0.0 0.0 0.00 0.00 0.00 88 1012.6
20260502045116 11 313 0.0 0.0 0.00 0.00 0.00 88 1012.6
20260502045021 11 313 0.0 0.0 0.00 0.00 0.00 88 1012.6
20260502044935 11 313 0.0 0.0 0.00 0.00 0.00 88 1012.6
20260502044823 10 313 0.0 0.0 0.00 0.00 0.00 88 1012.6
20260502044710 10 313 0.0 0.0 0.00 0.00 0.00 88 1012.5
20260502044643 11 313 0.0 0.0 0.00 0.00 0.00 88 1012.5
20260502044527 10 313 0.0 0.0 0.00 0.00 0.00 88 1012.5
20260502044504 10 316 0.0 0.0 0.00 0.00 0.00 88 1012.5
20260502044414 10 298 0.0 0.0 0.00 0.00 0.00 88 1012.6
20260502044319 10 298 0.0 0.0 0.00 0.00 0.00 88 1012.6
20260502044210 10 298 0.0 0.0 0.00 0.00 0.00 88 1012.5
20260502044116 10 298 0.0 0.0 0.00 0.00 0.00 88 1012.5
20260502044028 10 298 0.0 0.0 0.00 0.00 0.00 88 1012.5
20260502043914 10 298 0.0 0.0 0.00 0.00 0.00 88 1012.5
20260502043820 10 298 0.0 0.0 0.00 0.00 0.00 88 1012.5
20260502043710 10 298 0.0 0.0 0.00 0.00 0.00 88 1012.5
20260502043616 10 298 0.0 0.0 0.00 0.00 0.00 88 1012.5
20260502043522 10 298 0.0 0.0 0.00 0.00 0.00 88 1012.5
20260502043409 10 298 0.0 0.0 0.00 0.00 0.00 88 1012.5
20260502043322 10 298 0.0 0.0 0.00 0.00 0.00 88 1012.5
20260502043212 10 298 0.0 0.0 0.00 0.00 0.00 88 1012.5
20260502043118 10 298 0.0 0.0 0.00 0.00 0.00 88 1012.5
20260502043048 10 298 0.0 0.0 0.00 0.00 0.00 88 1012.4
20260502043024 10 298 0.0 0.0 0.00 0.00 0.00 88 1012.5
20260502042911 10 298 0.0 0.0 0.00 0.00 0.00 87 1012.5
20260502042817 10 298 0.0 0.0 0.00 0.00 0.00 88 1012.5
20260502042730 10 298 0.0 0.0 0.00 0.00 0.00 88 1012.5
20260502042619 10 298 0.0 0.0 0.00 0.00 0.00 88 1012.5
20260502042525 10 298 0.0 0.0 0.00 0.00 0.00 87 1012.4
20260502042411 10 298 0.0 0.0 0.00 0.00 0.00 88 1012.4
20260502042324 10 298 0.0 0.0 0.00 0.00 0.00 88 1012.4
20260502042210 10 298 0.0 0.0 0.00 0.00 0.00 87 1012.4
20260502042116 10 298 0.0 0.0 0.00 0.00 0.00 87 1012.4
20260502042026 10 298 0.0 0.0 0.00 0.00 0.00 87 1012.4
20260502041912 10 298 0.0 0.0 0.00 0.00 0.00 88 1012.3
20260502041818 10 298 0.0 0.0 0.00 0.00 0.00 88 1012.3
20260502041731 10 298 0.0 0.0 0.00 0.00 0.00 88 1012.3
20260502041617 10 298 0.0 0.0 0.00 0.00 0.00 87 1012.3
20260502041604 10 298 0.0 0.0 0.00 0.00 0.00 87 1012.3
20260502041527 10 298 0.0 0.0 0.00 0.00 0.00 87 1012.3
20260502041413 10 298 0.0 0.0 0.00 0.00 0.00 88 1012.3
20260502041319 10 298 0.0 0.0 0.00 0.00 0.00 88 1012.3
20260502041252 10 298 0.0 0.0 0.00 0.00 0.00 88 1012.3
20260502041116 10 298 0.0 0.0 0.00 0.00 0.00 88 1012.3
20260502041022 10 298 0.0 0.0 0.00 0.00 0.00 88 1012.3
20260502040911 10 298 0.0 0.0 0.00 0.00 0.00 88 1012.3
20260502040844 10 298 0.0 0.0 0.00 0.00 0.00 88 1012.3
20260502040749 10 298 0.0 0.0 0.00 0.00 0.00 88 1012.3
20260502040614 10 298 0.0 0.0 0.00 0.00 0.00 88 1012.2
20260502040527 10 298 0.0 0.0 0.00 0.00 0.00 88 1012.2
20260502040413 10 298 0.0 0.0 0.00 0.00 0.00 88 1012.2
20260502040323 10 298 0.0 0.0 0.00 0.00 0.00 88 1012.2
20260502040209 10 298 0.0 0.0 0.00 0.00 0.00 87 1012.1
20260502040115 10 298 0.0 0.0 0.00 0.00 0.00 87 1012.1
20260502040035 10 298 0.0 0.0 0.00 0.00 0.00 87 1012.1
20260502040021 10 298 0.0 0.0 0.00 0.00 0.00 87 1012.1
20260502035934 10 298 0.0 0.0 0.00 0.00 0.00 87 1012.2
20260502035820 10 298 0.0 0.0 0.00 0.00 0.00 87 1012.2
20260502035710 10 298 0.0 0.0 0.00 0.00 0.00 87 1012.2
20260502035616 10 298 0.0 0.0 0.00 0.00 0.00 87 1012.2
20260502035521 10 298 0.0 0.0 0.00 0.00 0.00 87 1012.2
20260502035436 10 298 0.0 0.0 0.00 0.00 0.00 87 1012.2
20260502035314 10 298 0.0 0.0 0.00 0.00 0.00 87 1012.2
20260502035230 10 298 0.0 0.0 0.00 0.00 0.00 86 1012.2
20260502035112 10 298 0.0 0.0 0.00 0.00 0.00 86 1012.2
20260502035039 11 298 0.0 0.0 0.00 0.00 0.00 86 1012.2
20260502034930 11 298 0.0 0.0 0.00 0.00 0.00 86 1012.2
20260502034813 11 298 0.0 0.0 0.00 0.00 0.00 86 1012.1
20260502034719 11 298 0.0 0.0 0.00 0.00 0.00 86 1012.1
20260502034610 11 298 0.0 0.0 0.00 0.00 0.00 86 1012.1
20260502034542 10 298 0.0 0.0 0.00 0.00 0.00 86 1012.1
20260502034426 11 298 0.0 0.0 0.00 0.00 0.00 86 1012.1
20260502034312 11 298 0.0 0.0 0.00 0.00 0.00 86 1012.0
20260502034225 11 298 0.0 0.0 0.00 0.00 0.00 86 1012.0
20260502034151 11 298 0.0 0.0 0.00 0.00 0.00 86 1012.1
20260502034018 11 298 0.0 0.0 0.00 0.00 0.00 86 1012.0
20260502033931 11 298 0.0 0.0 0.00 0.00 0.00 86 1012.0
20260502033831 11 298 0.0 0.0 0.00 0.00 0.00 86 1011.9
20260502033715 11 298 0.0 0.0 0.00 0.00 0.00 86 1011.9
20260502033648 11 298 0.0 0.0 0.00 0.00 0.00 86 1011.9
20260502033514 11 298 0.0 0.0 0.00 0.00 0.00 86 1012.0
20260502033423 11 298 0.0 0.0 0.00 0.00 0.00 86 1012.0
20260502033309 11 298 0.0 0.0 0.00 0.00 0.00 86 1012.0
20260502033215 11 298 0.0 0.0 0.00 0.00 0.00 86 1011.9
20260502033128 11 298 0.0 0.0 0.00 0.00 0.00 86 1011.9
20260502033116 10 298 0.0 0.0 0.00 0.00 0.00 86 1011.9
20260502033034 11 298 0.0 0.0 0.00 0.00 0.00 86 1012.0
20260502032918 11 298 0.0 0.0 0.00 0.00 0.00 86 1012.0
20260502032835 11 298 0.0 0.0 0.00 0.00 0.00 86 1012.0
20260502032741 11 327 0.0 0.0 0.00 0.00 0.00 86 1012.0
20260502032626 11 327 0.0 0.0 0.00 0.00 0.00 86 1012.0
20260502032512 11 313 0.0 0.0 0.00 0.00 0.00 85 1011.8
20260502032414 11 211 0.0 0.0 0.00 0.00 0.00 85 1011.8
20260502032327 11 144 0.0 0.0 0.00 0.00 0.00 85 1011.8
20260502032227 11 144 0.0 0.0 0.00 0.00 0.00 85 1011.7
20260502032113 11 144 0.0 0.0 0.00 0.00 0.00 85 1011.7
20260502032019 11 144 0.0 0.0 0.00 0.00 0.00 85 1011.7
20260502031932 11 144 0.0 0.0 0.00 0.00 0.00 86 1011.7
20260502031811 11 144 0.0 0.0 0.00 0.00 0.00 86 1011.8
20260502031709 11 144 0.0 0.0 0.00 0.00 0.00 86 1011.8
20260502031614 11 144 0.0 0.0 0.00 0.00 0.00 86 1011.8
20260502031551 10 144 0.0 0.0 0.00 0.00 0.00 86 1011.7
20260502031520 11 144 0.0 0.0 0.00 0.00 0.00 86 1011.8
20260502031426 11 144 0.0 0.0 0.00 0.00 0.00 86 1011.8
20260502031312 11 144 0.0 0.0 0.00 0.00 0.00 85 1011.8
20260502031246 11 144 0.0 0.0 0.00 0.00 0.00 85 1011.8
20260502031115 11 144 0.0 0.0 0.00 0.00 0.00 85 1011.8
20260502031045 11 144 0.0 0.0 0.00 0.00 0.00 85 1011.8
20260502030942 11 144 0.0 0.0 0.00 0.00 0.00 85 1011.7
20260502030834 11 144 0.0 0.0 0.00 0.00 0.00 85 1011.7
20260502030721 11 144 0.0 0.0 0.00 0.00 0.00 86 1011.6
20260502030626 11 144 0.0 0.0 0.00 0.00 0.00 86 1011.6
20260502030528 11 144 0.0 0.0 0.00 0.00 0.00 85 1011.6
20260502030432 11 144 0.0 0.0 0.00 0.00 0.00 85 1011.6
20260502030336 11 144 0.0 0.0 0.00 0.00 0.00 84 1011.5
20260502030217 11 144 0.0 0.0 0.00 0.00 0.00 84 1011.6
20260502030123 11 144 0.0 0.0 0.00 0.00 0.00 85 1011.6
20260502030035 11 144 0.0 0.0 0.00 0.00 0.00 85 1011.6
20260502030024 10 144 0.0 0.0 0.00 0.00 0.00 85 1011.6
20260502025921 10 144 0.0 0.0 0.00 0.00 0.00 84 1011.7
20260502025838 10 144 0.0 0.0 0.00 0.00 0.00 84 1011.7
20260502025733 10 144 0.0 0.0 0.00 0.00 0.00 84 1011.7